Location: La Bastide
(43.1661°N, 1.2755°E)
Time: 02:10:54
(UTC+00:00)

GEOS 3 Rocket - Pass Details

Date: 13 December 2025
Orbit: 769 x 844 km, 115.0° (Epoch: 12 January)

Event Time Altitude Azimuth Distance (km) Brightness Sun altitude
Exits shadow 17:19:13 - 36° (NE) 2,600 5.7 -10.5°
Reaches altitude 10° 17:19:33 10° 36° (NE) 2,468 5.6 -10.5°
Maximum altitude 17:24:58 88° 307° (NW) 850 3.7 -11.4°
Drops below altitude 10° 17:30:20 10° 219° (SW) 2,453 7.1 -12.4°
Sets 17:32:38 0° 219° (SW) 3,379 7.9 -12.8°
